[Date Prev][Date Next][Thread Prev][Thread Next] - [Date Index][Thread Index][Author Index]

2 Line ISS Keps 11-5



ISS
1 25544U 98067A   04310.50331591  .00028488  00000-0  23263-3 0   759
2 25544  51.6362 324.6690 0008245 320.5128 199.6494 15.70309580340518
----
Via the sarex mailing list at AMSAT.ORG courtesy of AMSAT-NA.
To unsubscribe, send "unsubscribe sarex" to Majordomo@amsat.org



AMSAT Top AMSAT Home